Overview Statistics Trail Chart Weather Telemetry Raw packets
 

This is the latest recevied weather packets stored in our database for station/object N3LF. If no packets are shown the sender has not sent any weather packets the latest 10 day(s).

<< 109 110 111 112 113 114 >>
Time Temp. Humidity Pressure Rain* Wind** Luminosity Snow
1787794693 22.22° C 99% 1016.9 hPa 0 mm - 0 W/m² -
1787794389 22.22° C 99% 1016.7 hPa 0 mm - 0 W/m² -
1787794089 22.22° C 99% 1016.9 hPa 0 mm - 0 W/m² -
1787793786 22.22° C 99% 1016.9 hPa 0 mm - 0 W/m² -
1787793485 22.78° C 99% 1016.9 hPa 0 mm - 0 W/m² -
1787793181 22.78° C 99% 1017 hPa 0 mm - 0 W/m² -
1787792875 22.22° C 99% 1016.8 hPa 0 mm - 0 W/m² -
1787792570 22.78° C 99% 1016.6 hPa 0 mm - 0 W/m² -
1787792268 22.78° C 99% 1016.6 hPa 0 mm - 0 W/m² -
1787791967 22.78° C 99% 1016.7 hPa 0 mm - 0 W/m² -
1787791666 22.78° C 98% 1016.8 hPa 0 mm - 0 W/m² -
1787791362 22.78° C 98% 1016.8 hPa 0 mm - 0 W/m² -
1787791056 23.33° C 97% 1016.8 hPa 0 mm - 0 W/m² -
1787790753 23.33° C 96% 1016.8 hPa 0 mm - 1 W/m² -
1787790452 23.33° C 96% 1016.8 hPa 0 mm - 2 W/m² -
1787790148 23.89° C 95% 1016.6 hPa 0 mm - 4 W/m² -
1787789844 23.89° C 95% 1016.6 hPa 0 mm - 5 W/m² -
1787789543 23.89° C 94% 1016.6 hPa 0 mm - 7 W/m² -
1787789242 23.89° C 92% 1016.8 hPa 0 mm - 10 W/m² -
1787788938 24.44° C 91% 1016.8 hPa 0 mm - 12 W/m² -
1787788635 24.44° C 91% 1016.9 hPa 0 mm - 14 W/m² -
1787788335 25° C 88% 1016.9 hPa 0 mm - 15 W/m² -
1787788030 26.11° C 86% 1016.9 hPa 0 mm - 15 W/m² -
1787787726 26.67° C 83% 1016.9 hPa 0 mm - 16 W/m² -
1787787424 27.22° C 81% 1016.9 hPa 0 mm - 18 W/m² -

* Rain latest hour (hover to see other rain measurements)
** Current wind speed in m/s (hover to see current wind gust speed)